Time,TemperatureF,DewpointF,PressureIn,WindDirection,WindDirectionDegrees,WindSpeedMPH,WindSpeedGustMPH,Humidity,HourlyPrecipIn,Conditions,Clouds,dailyrainin,SolarRadiationWatts/m^2,SoftwareType,DateUTC
2013-01-15 00:02:00,4.0,-17.0,-100.00,WSW,255,12.0,23.0,36,0.00,,,0.00,1.000000,,2013-01-15 07:02:00,
2013-01-15 00:12:00,4.0,-17.0,-100.00,WSW,255,12.0,23.0,36,0.00,,,0.00,1.000000,,2013-01-15 07:12:00,
2013-01-15 00:22:00,4.0,-17.0,-100.00,WSW,255,12.0,23.0,36,0.00,,,0.00,1.000000,,2013-01-15 07:22:00,
2013-01-15 00:43:00,5.0,-17.0,-100.00,WSW,254,13.0,27.0,34,0.00,,,0.00,1.000000,,2013-01-15 07:43:00,
2013-01-15 00:53:00,5.0,-17.0,-100.00,WSW,254,13.0,27.0,34,0.00,,,0.00,1.000000,,2013-01-15 07:53:00,
2013-01-15 01:02:00,5.0,-17.0,-100.00,WSW,254,13.0,27.0,34,0.00,,,0.00,1.000000,,2013-01-15 08:02:00,
2013-01-15 01:12:00,5.0,-17.0,-100.00,WSW,254,13.0,27.0,34,0.00,,,0.00,1.000000,,2013-01-15 08:12:00,
2013-01-15 01:22:00,5.0,-17.0,-100.00,WSW,254,13.0,27.0,34,0.00,,,0.00,1.000000,,2013-01-15 08:22:00,
2013-01-15 01:43:00,5.0,-20.0,-100.00,WSW,249,13.0,25.0,30,0.00,,,0.00,1.000000,,2013-01-15 08:43:00,
2013-01-15 01:53:00,5.0,-20.0,-100.00,WSW,249,13.0,25.0,30,0.00,,,0.00,1.000000,,2013-01-15 08:53:00,
2013-01-15 02:02:00,5.0,-20.0,-100.00,WSW,249,13.0,25.0,30,0.00,,,0.00,1.000000,,2013-01-15 09:02:00,
2013-01-15 02:12:00,5.0,-20.0,-100.00,WSW,249,13.0,25.0,30,0.00,,,0.00,1.000000,,2013-01-15 09:12:00,
2013-01-15 02:22:00,5.0,-20.0,-100.00,WSW,249,13.0,25.0,30,0.00,,,0.00,1.000000,,2013-01-15 09:22:00,
2013-01-15 02:43:00,6.0,-19.0,-100.00,WSW,256,12.0,25.0,29,0.00,,,0.00,1.000000,,2013-01-15 09:43:00,
2013-01-15 02:52:00,6.0,-19.0,-100.00,WSW,256,12.0,25.0,29,0.00,,,0.00,1.000000,,2013-01-15 09:52:00,
2013-01-15 03:02:00,6.0,-19.0,-100.00,WSW,256,12.0,25.0,29,0.00,,,0.00,1.000000,,2013-01-15 10:02:00,
2013-01-15 03:12:00,6.0,-19.0,-100.00,WSW,256,12.0,25.0,29,0.00,,,0.00,1.000000,,2013-01-15 10:12:00,
2013-01-15 03:22:00,6.0,-19.0,-100.00,WSW,256,12.0,25.0,29,0.00,,,0.00,1.000000,,2013-01-15 10:22:00,
2013-01-15 03:42:00,6.0,-20.0,-100.00,WSW,251,12.0,21.0,28,0.00,,,0.00,1.000000,,2013-01-15 10:42:00,
2013-01-15 03:52:00,6.0,-20.0,-100.00,WSW,251,12.0,21.0,28,0.00,,,0.00,1.000000,,2013-01-15 10:52:00,
2013-01-15 04:02:00,6.0,-20.0,-100.00,WSW,251,12.0,21.0,28,0.00,,,0.00,1.000000,,2013-01-15 11:02:00,
2013-01-15 04:12:00,6.0,-20.0,-100.00,WSW,251,12.0,21.0,28,0.00,,,0.00,1.000000,,2013-01-15 11:12:00,
2013-01-15 04:22:00,6.0,-20.0,-100.00,WSW,251,12.0,21.0,28,0.00,,,0.00,1.000000,,2013-01-15 11:22:00,
2013-01-15 04:43:00,10.0,-18.0,-100.00,West,280,13.0,25.0,26,0.00,,,0.00,1.000000,,2013-01-15 11:43:00,
2013-01-15 04:53:00,10.0,-18.0,-100.00,West,280,13.0,25.0,26,0.00,,,0.00,1.000000,,2013-01-15 11:53:00,
2013-01-15 05:03:00,10.0,-18.0,-100.00,West,280,13.0,25.0,26,0.00,,,0.00,1.000000,,2013-01-15 12:03:00,
2013-01-15 05:12:00,10.0,-18.0,-100.00,West,280,13.0,25.0,26,0.00,,,0.00,1.000000,,2013-01-15 12:12:00,
2013-01-15 05:22:00,10.0,-18.0,-100.00,West,280,13.0,25.0,26,0.00,,,0.00,1.000000,,2013-01-15 12:22:00,
2013-01-15 05:43:00,10.0,-13.0,-100.00,West,279,16.0,33.0,34,0.00,,,0.00,1.000000,,2013-01-15 12:43:00,
2013-01-15 05:53:00,10.0,-13.0,-100.00,West,279,16.0,33.0,34,0.00,,,0.00,1.000000,,2013-01-15 12:53:00,
2013-01-15 06:03:00,10.0,-13.0,-100.00,West,279,16.0,33.0,34,0.00,,,0.00,1.000000,,2013-01-15 13:03:00,
2013-01-15 06:12:00,10.0,-13.0,-100.00,West,279,16.0,33.0,34,0.00,,,0.00,1.000000,,2013-01-15 13:12:00,
2013-01-15 06:23:00,10.0,-13.0,-100.00,West,279,16.0,33.0,34,0.00,,,0.00,1.000000,,2013-01-15 13:23:00,
2013-01-15 06:43:00,10.0,-10.0,-100.00,West,259,11.0,29.0,38,0.00,,,0.00,1.000000,,2013-01-15 13:43:00,
2013-01-15 06:53:00,10.0,-10.0,-100.00,West,259,11.0,29.0,38,0.00,,,0.00,1.000000,,2013-01-15 13:53:00,
2013-01-15 07:03:00,10.0,-10.0,-100.00,West,259,11.0,29.0,38,0.00,,,0.00,1.000000,,2013-01-15 14:03:00,
2013-01-15 07:12:00,10.0,-10.0,-100.00,West,259,11.0,29.0,38,0.00,,,0.00,1.000000,,2013-01-15 14:12:00,
2013-01-15 07:23:00,10.0,-10.0,-100.00,West,259,11.0,29.0,38,0.00,,,0.00,1.000000,,2013-01-15 14:23:00,
2013-01-15 07:43:00,14.0,-6.0,-100.00,West,273,13.0,25.0,40,0.00,,,0.00,1.000000,,2013-01-15 14:43:00,
2013-01-15 07:53:00,14.0,-6.0,-100.00,West,273,13.0,25.0,40,0.00,,,0.00,1.000000,,2013-01-15 14:53:00,
2013-01-15 08:03:00,14.0,-6.0,-100.00,West,273,13.0,25.0,40,0.00,,,0.00,1.000000,,2013-01-15 15:03:00,
2013-01-15 08:12:00,14.0,-6.0,-100.00,West,273,13.0,25.0,40,0.00,,,0.00,1.000000,,2013-01-15 15:12:00,
2013-01-15 08:23:00,14.0,-6.0,-100.00,West,273,13.0,25.0,40,0.00,,,0.00,1.000000,,2013-01-15 15:23:00,
2013-01-15 08:43:00,17.0,-3.0,-100.00,WSW,257,14.0,27.0,40,0.00,,,0.00,13.000000,,2013-01-15 15:43:00,
2013-01-15 08:53:00,17.0,-3.0,-100.00,WSW,257,14.0,27.0,40,0.00,,,0.00,13.000000,,2013-01-15 15:53:00,
2013-01-15 09:03:00,17.0,-3.0,-100.00,WSW,257,14.0,27.0,40,0.00,,,0.00,13.000000,,2013-01-15 16:03:00,
2013-01-15 09:12:00,17.0,-3.0,-100.00,WSW,257,14.0,27.0,40,0.00,,,0.00,13.000000,,2013-01-15 16:12:00,
2013-01-15 09:22:00,17.0,-3.0,-100.00,WSW,257,14.0,27.0,40,0.00,,,0.00,13.000000,,2013-01-15 16:22:00,
2013-01-15 09:43:00,19.0,0.0,-100.00,WSW,256,12.0,28.0,43,0.00,,,0.00,56.000000,,2013-01-15 16:43:00,
2013-01-15 09:53:00,19.0,0.0,-100.00,WSW,256,12.0,28.0,43,0.00,,,0.00,56.000000,,2013-01-15 16:53:00,
2013-01-15 10:03:00,19.0,0.0,-100.00,WSW,256,12.0,28.0,43,0.00,,,0.00,56.000000,,2013-01-15 17:03:00,
2013-01-15 10:12:00,19.0,0.0,-100.00,WSW,256,12.0,28.0,43,0.00,,,0.00,56.000000,,2013-01-15 17:12:00,
2013-01-15 10:22:00,19.0,0.0,-100.00,WSW,256,12.0,28.0,43,0.00,,,0.00,56.000000,,2013-01-15 17:22:00,
2013-01-15 10:43:00,23.0,2.0,-100.00,WSW,247,5.0,20.0,39,0.00,,,-99.99,106.000000,,2013-01-15 17:43:00,
2013-01-15 10:53:00,23.0,2.0,-100.00,WSW,247,5.0,20.0,39,0.00,,,-99.99,106.000000,,2013-01-15 17:53:00,
2013-01-15 11:03:00,23.0,2.0,-100.00,WSW,247,5.0,20.0,39,0.00,,,-99.99,106.000000,,2013-01-15 18:03:00,
2013-01-15 11:13:00,23.0,2.0,-100.00,WSW,247,5.0,20.0,39,0.00,,,-99.99,106.000000,,2013-01-15 18:13:00,
2013-01-15 11:23:00,23.0,2.0,-100.00,WSW,247,5.0,20.0,39,0.00,,,-99.99,106.000000,,2013-01-15 18:23:00,
2013-01-15 11:43:00,23.0,2.0,-100.00,WSW,247,12.0,21.0,40,0.00,,,0.00,138.000000,,2013-01-15 18:43:00,
2013-01-15 11:53:00,23.0,2.0,-100.00,WSW,247,12.0,21.0,40,0.00,,,0.00,138.000000,,2013-01-15 18:53:00,
2013-01-15 12:03:00,23.0,2.0,-100.00,WSW,247,12.0,21.0,40,0.00,,,0.00,138.000000,,2013-01-15 19:03:00,
2013-01-15 12:12:00,23.0,2.0,-100.00,WSW,247,12.0,21.0,40,0.00,,,0.00,138.000000,,2013-01-15 19:12:00,
2013-01-15 12:22:00,23.0,2.0,-100.00,WSW,247,12.0,21.0,40,0.00,,,0.00,138.000000,,2013-01-15 19:22:00,
2013-01-15 12:43:00,24.0,3.0,-100.00,WSW,258,12.0,25.0,39,0.00,,,0.00,188.000000,,2013-01-15 19:43:00,
2013-01-15 12:53:00,24.0,3.0,-100.00,WSW,258,12.0,25.0,39,0.00,,,0.00,188.000000,,2013-01-15 19:53:00,
2013-01-15 13:03:00,24.0,3.0,-100.00,WSW,258,12.0,25.0,39,0.00,,,0.00,188.000000,,2013-01-15 20:03:00,
2013-01-15 13:12:00,24.0,3.0,-100.00,WSW,258,12.0,25.0,39,0.00,,,0.00,188.000000,,2013-01-15 20:12:00,
2013-01-15 13:23:00,24.0,3.0,-100.00,WSW,258,12.0,25.0,39,0.00,,,0.00,188.000000,,2013-01-15 20:23:00,
2013-01-15 13:44:00,27.0,5.0,-100.00,WSW,245,10.0,19.0,38,0.00,,,0.00,214.000000,,2013-01-15 20:44:00,
2013-01-15 13:53:00,27.0,5.0,-100.00,WSW,245,10.0,19.0,38,0.00,,,0.00,214.000000,,2013-01-15 20:53:00,
2013-01-15 14:03:00,27.0,5.0,-100.00,WSW,245,10.0,19.0,38,0.00,,,0.00,214.000000,,2013-01-15 21:03:00,
2013-01-15 14:13:00,27.0,5.0,-100.00,WSW,245,10.0,19.0,38,0.00,,,0.00,214.000000,,2013-01-15 21:13:00,
2013-01-15 14:23:00,27.0,5.0,-100.00,WSW,245,10.0,19.0,38,0.00,,,0.00,214.000000,,2013-01-15 21:23:00,
2013-01-15 14:43:00,28.0,6.0,-100.00,WSW,250,11.0,20.0,38,0.00,,,0.00,301.000000,,2013-01-15 21:43:00,
2013-01-15 14:53:00,28.0,6.0,-100.00,WSW,250,11.0,20.0,38,0.00,,,0.00,301.000000,,2013-01-15 21:53:00,
2013-01-15 15:03:00,28.0,6.0,-100.00,WSW,250,11.0,20.0,38,0.00,,,0.00,301.000000,,2013-01-15 22:03:00,
2013-01-15 15:12:00,28.0,6.0,-100.00,WSW,250,11.0,20.0,38,0.00,,,0.00,301.000000,,2013-01-15 22:12:00,
2013-01-15 15:23:00,28.0,6.0,-100.00,WSW,250,11.0,20.0,38,0.00,,,0.00,301.000000,,2013-01-15 22:23:00,
2013-01-15 15:43:00,29.0,7.0,-100.00,WSW,258,11.0,20.0,38,0.00,,,0.00,371.000000,,2013-01-15 22:43:00,
2013-01-15 15:53:00,29.0,7.0,-100.00,WSW,258,11.0,20.0,38,0.00,,,0.00,371.000000,,2013-01-15 22:53:00,
2013-01-15 16:02:00,29.0,7.0,-100.00,WSW,258,11.0,20.0,38,0.00,,,0.00,371.000000,,2013-01-15 23:02:00,
2013-01-15 16:13:00,29.0,7.0,-100.00,WSW,258,11.0,20.0,38,0.00,,,0.00,371.000000,,2013-01-15 23:13:00,
2013-01-15 16:22:00,29.0,7.0,-100.00,WSW,258,11.0,20.0,38,0.00,,,0.00,371.000000,,2013-01-15 23:22:00,
2013-01-15 16:43:00,24.0,3.0,-100.00,WSW,246,13.0,22.0,40,0.00,,,0.00,89.000000,,2013-01-15 23:43:00,
2013-01-15 16:53:00,24.0,3.0,-100.00,WSW,246,13.0,22.0,40,0.00,,,0.00,89.000000,,2013-01-15 23:53:00,
2013-01-15 17:02:00,24.0,3.0,-100.00,WSW,246,13.0,22.0,40,0.00,,,0.00,89.000000,,2013-01-16 00:02:00,
2013-01-15 17:12:00,24.0,3.0,-100.00,WSW,246,13.0,22.0,40,0.00,,,0.00,89.000000,,2013-01-16 00:12:00,
2013-01-15 17:22:00,24.0,3.0,-100.00,WSW,246,13.0,22.0,40,0.00,,,0.00,89.000000,,2013-01-16 00:22:00,
2013-01-15 17:43:00,25.0,5.0,-100.00,WSW,243,10.0,20.0,42,0.00,,,0.00,21.000000,,2013-01-16 00:43:00,
2013-01-15 17:53:00,25.0,5.0,-100.00,WSW,243,10.0,20.0,42,0.00,,,0.00,21.000000,,2013-01-16 00:53:00,
2013-01-15 18:03:00,25.0,5.0,-100.00,WSW,243,10.0,20.0,42,0.00,,,0.00,21.000000,,2013-01-16 01:03:00,
2013-01-15 18:12:00,25.0,5.0,-100.00,WSW,243,10.0,20.0,42,0.00,,,0.00,21.000000,,2013-01-16 01:12:00,
2013-01-15 18:22:00,25.0,5.0,-100.00,WSW,243,10.0,20.0,42,0.00,,,0.00,21.000000,,2013-01-16 01:22:00,
2013-01-15 18:43:00,26.0,7.0,-100.00,West,273,8.0,21.0,43,0.00,,,0.00,1.000000,,2013-01-16 01:43:00,
2013-01-15 18:53:00,26.0,7.0,-100.00,West,273,8.0,21.0,43,0.00,,,0.00,1.000000,,2013-01-16 01:53:00,
2013-01-15 19:03:00,26.0,7.0,-100.00,West,273,8.0,21.0,43,0.00,,,0.00,1.000000,,2013-01-16 02:03:00,
2013-01-15 19:12:00,26.0,7.0,-100.00,West,273,8.0,21.0,43,0.00,,,0.00,1.000000,,2013-01-16 02:12:00,
2013-01-15 19:22:00,26.0,7.0,-100.00,West,273,8.0,21.0,43,0.00,,,0.00,1.000000,,2013-01-16 02:22:00,
2013-01-15 19:43:00,27.0,9.0,-100.00,SW,230,8.0,18.0,45,0.00,,,0.00,1.000000,,2013-01-16 02:43:00,
2013-01-15 19:53:00,27.0,9.0,-100.00,SW,230,8.0,18.0,45,0.00,,,0.00,1.000000,,2013-01-16 02:53:00,
2013-01-15 20:03:00,27.0,9.0,-100.00,SW,230,8.0,18.0,45,0.00,,,0.00,1.000000,,2013-01-16 03:03:00,
2013-01-15 20:12:00,27.0,9.0,-100.00,SW,230,8.0,18.0,45,0.00,,,0.00,1.000000,,2013-01-16 03:12:00,
2013-01-15 20:22:00,27.0,9.0,-100.00,SW,230,8.0,18.0,45,0.00,,,0.00,1.000000,,2013-01-16 03:22:00,
2013-01-15 20:43:00,29.0,11.0,-100.00,WSW,238,8.0,19.0,46,0.00,,,0.00,1.000000,,2013-01-16 03:43:00,
2013-01-15 20:53:00,29.0,11.0,-100.00,WSW,238,8.0,19.0,46,0.00,,,0.00,1.000000,,2013-01-16 03:53:00,
2013-01-15 21:02:00,29.0,11.0,-100.00,WSW,238,8.0,19.0,46,0.00,,,0.00,1.000000,,2013-01-16 04:02:00,
2013-01-15 21:12:00,29.0,11.0,-100.00,WSW,238,8.0,19.0,46,0.00,,,0.00,1.000000,,2013-01-16 04:12:00,
2013-01-15 21:22:00,29.0,11.0,-100.00,WSW,238,8.0,19.0,46,0.00,,,0.00,1.000000,,2013-01-16 04:22:00,
2013-01-15 21:42:00,29.0,12.0,-100.00,WSW,244,8.0,21.0,48,0.00,,,0.00,1.000000,,2013-01-16 04:42:00,
2013-01-15 21:52:00,29.0,12.0,-100.00,WSW,244,8.0,21.0,48,0.00,,,0.00,1.000000,,2013-01-16 04:52:00,
2013-01-15 22:03:00,29.0,12.0,-100.00,WSW,244,8.0,21.0,48,0.00,,,0.00,1.000000,,2013-01-16 05:03:00,
2013-01-15 22:12:00,29.0,12.0,-100.00,WSW,244,8.0,21.0,48,0.00,,,0.00,1.000000,,2013-01-16 05:12:00,
2013-01-15 22:22:00,29.0,12.0,-100.00,WSW,244,8.0,21.0,48,0.00,,,0.00,1.000000,,2013-01-16 05:22:00,
2013-01-15 22:42:00,29.0,14.0,-100.00,WSW,242,4.0,14.0,52,0.00,,,0.00,1.000000,,2013-01-16 05:42:00,
2013-01-15 22:53:00,29.0,14.0,-100.00,WSW,242,4.0,14.0,52,0.00,,,0.00,1.000000,,2013-01-16 05:53:00,
2013-01-15 23:02:00,29.0,14.0,-100.00,WSW,242,4.0,14.0,52,0.00,,,0.00,1.000000,,2013-01-16 06:02:00,
2013-01-15 23:12:00,29.0,14.0,-100.00,WSW,242,4.0,14.0,52,0.00,,,0.00,1.000000,,2013-01-16 06:12:00,
2013-01-15 23:22:00,29.0,14.0,-100.00,WSW,242,4.0,14.0,52,0.00,,,0.00,1.000000,,2013-01-16 06:22:00,
2013-01-15 23:43:00,30.0,12.0,-100.00,West,263,8.0,18.0,47,0.00,,,0.00,1.000000,,2013-01-16 06:43:00,
2013-01-15 23:53:00,30.0,12.0,-100.00,West,263,8.0,18.0,47,0.00,,,0.00,1.000000,,2013-01-16 06:53:00,